TSC33G EGCC-EGPH

Flight info

Callsign TSC33G
Flight time 0h 32m
Altitude 22000
Route POL N601 INPIP
Aircraft A321/M-SDE3FGHIRWY/LB1

Departure

Time 2026-04-24 01:05
Airport Manchester Airport (EGCC)

Arrival

Time 2026-04-24 01:38
Airport Edinburgh Airport (EGPH)
Time Latitude Longitude Altitude Speed Heading
2026-04-24 00:39 53.36289 -2.27913 255 ft 0 kts 139°
2026-04-24 00:56 53.36292 -2.27917 255 ft 3 kts 139°
2026-04-24 00:56 53.36311 -2.27947 255 ft 4 kts 138°
2026-04-24 00:57 53.36332 -2.27973 255 ft 4 kts 160°
2026-04-24 00:57 53.36357 -2.27979 255 ft 4 kts 197°
2026-04-24 00:57 53.36376 -2.27960 255 ft 0 kts 224°
2026-04-24 00:59 53.36373 -2.27965 255 ft 3 kts 224°
2026-04-24 00:59 53.36340 -2.28018 255 ft 9 kts 222°
2026-04-24 00:59 53.36277 -2.28068 255 ft 11 kts 200°
2026-04-24 01:00 53.36208 -2.28134 255 ft 11 kts 211°
2026-04-24 01:00 53.36143 -2.28126 255 ft 10 kts 144°
2026-04-24 01:00 53.36086 -2.28039 255 ft 12 kts 138°
2026-04-24 01:00 53.36021 -2.27942 255 ft 13 kts 139°
2026-04-24 01:01 53.35955 -2.27860 255 ft 12 kts 155°
2026-04-24 01:01 53.35870 -2.27853 254 ft 14 kts 186°
2026-04-24 01:01 53.35755 -2.27872 248 ft 19 kts 186°
2026-04-24 01:01 53.35609 -2.27897 240 ft 22 kts 186°
2026-04-24 01:02 53.35467 -2.27929 239 ft 18 kts 198°
2026-04-24 01:02 53.35373 -2.28054 236 ft 16 kts 224°
2026-04-24 01:02 53.35294 -2.28184 235 ft 17 kts 225°
2026-04-24 01:02 53.35204 -2.28337 234 ft 19 kts 228°
2026-04-24 01:03 53.35116 -2.28537 229 ft 21 kts 231°
2026-04-24 01:03 53.35032 -2.28709 229 ft 18 kts 229°
2026-04-24 01:03 53.34951 -2.28853 227 ft 16 kts 224°
2026-04-24 01:03 53.34876 -2.28984 222 ft 17 kts 227°
2026-04-24 01:04 53.34784 -2.29079 221 ft 14 kts 179°
2026-04-24 01:04 53.34693 -2.29035 218 ft 15 kts 141°
2026-04-24 01:04 53.34677 -2.28933 225 ft 7 kts 51°
2026-04-24 01:04 53.34743 -2.28799 223 ft 41 kts 51°
2026-04-24 01:05 53.35093 -2.28083 234 ft 116 kts 52°
2026-04-24 01:05 53.35736 -2.26786 402 ft 160 kts 48°
2026-04-24 01:05 53.36430 -2.25400 1264 ft 154 kts 50°
2026-04-24 01:05 53.37091 -2.23965 1996 ft 157 kts 52°
2026-04-24 01:06 53.37747 -2.22481 2527 ft 163 kts 52°
2026-04-24 01:06 53.38440 -2.20912 2922 ft 177 kts 53°
2026-04-24 01:06 53.39195 -2.19194 3347 ft 191 kts 54°
2026-04-24 01:06 53.40042 -2.17291 3624 ft 216 kts 53°
2026-04-24 01:07 53.41024 -2.15197 3937 ft 240 kts 53°
2026-04-24 01:07 53.42104 -2.12917 4339 ft 257 kts 52°
2026-04-24 01:07 53.43276 -2.10609 5017 ft 264 kts 42°
2026-04-24 01:07 53.44939 -2.09317 5700 ft 272 kts
2026-04-24 01:08 53.46857 -2.09469 6320 ft 280 kts 353°
2026-04-24 01:08 53.48801 -2.09847 7034 ft 283 kts 354°
2026-04-24 01:08 53.50770 -2.10200 7760 ft 286 kts 356°
2026-04-24 01:08 53.52768 -2.10255 8469 ft 289 kts
2026-04-24 01:09 53.54785 -2.10064 9158 ft 291 kts
2026-04-24 01:09 53.56818 -2.09931 9846 ft 294 kts
2026-04-24 01:09 53.58876 -2.09893 10534 ft 296 kts 360°
2026-04-24 01:09 53.60923 -2.09918 11155 ft 301 kts 359°
2026-04-24 01:10 53.63074 -2.09980 11690 ft 308 kts 358°
2026-04-24 01:10 53.65200 -2.10057 12308 ft 311 kts 357°
2026-04-24 01:10 53.67379 -2.10134 12964 ft 313 kts 358°
2026-04-24 01:10 53.69568 -2.10206 13565 ft 317 kts 358°
2026-04-24 01:11 53.71785 -2.10275 14127 ft 322 kts 358°
2026-04-24 01:11 53.74080 -2.10608 14248 ft 340 kts 349°
2026-04-24 01:11 53.76400 -2.11705 14471 ft 352 kts 338°
2026-04-24 01:11 53.78688 -2.13284 14942 ft 358 kts 337°
2026-04-24 01:12 53.81009 -2.14882 15474 ft 361 kts 338°
2026-04-24 01:12 53.83349 -2.16486 16001 ft 365 kts 338°
2026-04-24 01:12 53.85715 -2.18100 16533 ft 368 kts 338°
2026-04-24 01:12 53.88099 -2.19723 17038 ft 371 kts 338°
2026-04-24 01:13 53.90506 -2.21358 17539 ft 374 kts 338°
2026-04-24 01:13 53.92900 -2.22991 18013 ft 377 kts 338°
2026-04-24 01:13 53.95345 -2.24667 18496 ft 380 kts 338°
2026-04-24 01:13 53.97811 -2.26365 18956 ft 383 kts 338°
2026-04-24 01:14 54.00293 -2.28077 19389 ft 387 kts 338°
2026-04-24 01:14 54.02797 -2.29807 19823 ft 390 kts 338°
2026-04-24 01:14 54.05320 -2.31552 20256 ft 393 kts 338°
2026-04-24 01:14 54.07860 -2.33309 20684 ft 395 kts 338°
2026-04-24 01:15 54.10412 -2.35074 21095 ft 398 kts 337°
2026-04-24 01:15 54.12989 -2.36859 21485 ft 401 kts 337°
2026-04-24 01:15 54.15592 -2.38664 21848 ft 405 kts 337°
2026-04-24 01:15 54.18212 -2.40487 22215 ft 408 kts 337°
2026-04-24 01:16 54.20812 -2.42299 22413 ft 409 kts 337°
2026-04-24 01:16 54.23437 -2.44126 22437 ft 406 kts 337°
2026-04-24 01:16 54.26046 -2.45944 22441 ft 405 kts 337°
2026-04-24 01:16 54.28659 -2.47764 22438 ft 404 kts 337°
2026-04-24 01:17 54.31257 -2.49575 22441 ft 403 kts 337°
2026-04-24 01:17 54.33853 -2.51389 22430 ft 403 kts 337°
2026-04-24 01:17 54.36449 -2.53208 22431 ft 403 kts 337°
2026-04-24 01:17 54.39043 -2.55028 22439 ft 403 kts 337°
2026-04-24 01:18 54.41636 -2.56847 22441 ft 402 kts 338°
2026-04-24 01:18 54.44224 -2.58668 22441 ft 402 kts 337°
2026-04-24 01:18 54.46810 -2.60495 22438 ft 401 kts 338°
2026-04-24 01:18 54.49392 -2.62317 22435 ft 401 kts 338°
2026-04-24 01:19 54.51975 -2.64136 22434 ft 401 kts 338°
2026-04-24 01:19 54.54557 -2.65961 22432 ft 401 kts 338°
2026-04-24 01:19 54.57134 -2.67793 22433 ft 401 kts 338°
2026-04-24 01:19 54.58839 -2.69008 22433 ft 400 kts 338°
2026-04-24 01:20 54.61416 -2.70844 22430 ft 401 kts 337°
2026-04-24 01:20 54.63993 -2.72679 22430 ft 401 kts 337°
2026-04-24 01:20 54.66569 -2.74514 22432 ft 401 kts 337°
2026-04-24 01:20 54.69149 -2.76355 22434 ft 400 kts 338°
2026-04-24 01:21 54.71722 -2.78191 22435 ft 400 kts 338°
2026-04-24 01:21 54.74292 -2.80028 22433 ft 399 kts 338°
2026-04-24 01:21 54.76860 -2.81864 22434 ft 399 kts 338°
2026-04-24 01:21 54.79426 -2.83707 22433 ft 399 kts 338°
2026-04-24 01:22 54.81985 -2.85553 22431 ft 399 kts 338°
2026-04-24 01:22 54.84544 -2.87401 22427 ft 398 kts 338°
2026-04-24 01:22 54.87110 -2.89252 22424 ft 398 kts 338°
2026-04-24 01:22 54.89665 -2.91093 22421 ft 398 kts 338°
2026-04-24 01:23 54.92225 -2.92939 22423 ft 398 kts 338°
2026-04-24 01:23 54.94786 -2.94783 22422 ft 398 kts 338°
2026-04-24 01:23 54.97341 -2.96629 22419 ft 398 kts 338°
2026-04-24 01:23 54.99857 -2.98454 22420 ft 397 kts 338°
2026-04-24 01:24 55.02408 -3.00309 22349 ft 394 kts 338°
2026-04-24 01:24 55.04929 -3.02151 22088 ft 382 kts 338°
2026-04-24 01:24 55.07325 -3.03903 21813 ft 372 kts 338°
2026-04-24 01:24 55.09698 -3.05634 21393 ft 367 kts 338°
2026-04-24 01:25 55.12036 -3.07339 20952 ft 362 kts 338°
2026-04-24 01:25 55.14343 -3.09023 20515 ft 357 kts 338°
2026-04-24 01:25 55.16630 -3.10694 19936 ft 357 kts 338°
2026-04-24 01:25 55.18934 -3.12378 19256 ft 359 kts 338°
2026-04-24 01:26 55.21247 -3.14074 18590 ft 361 kts 338°
2026-04-24 01:26 55.23563 -3.15777 17931 ft 362 kts 338°
2026-04-24 01:26 55.25885 -3.17484 17362 ft 360 kts 338°
2026-04-24 01:26 55.28143 -3.19148 17221 ft 344 kts 337°
2026-04-24 01:27 55.30280 -3.20838 17101 ft 330 kts 330°
2026-04-24 01:27 55.32230 -3.22840 16885 ft 320 kts 330°
2026-04-24 01:27 55.34139 -3.24805 16442 ft 318 kts 330°
2026-04-24 01:27 55.36043 -3.26762 15986 ft 316 kts 329°
2026-04-24 01:28 55.37936 -3.28704 15549 ft 314 kts 329°
2026-04-24 01:28 55.39818 -3.30630 15109 ft 312 kts 329°
2026-04-24 01:28 55.41686 -3.32548 14685 ft 310 kts 329°
2026-04-24 01:28 55.43542 -3.34458 14268 ft 308 kts 329°
2026-04-24 01:29 55.45386 -3.36359 13836 ft 306 kts 329°
2026-04-24 01:29 55.47217 -3.38252 13412 ft 304 kts 329°
2026-04-24 01:29 55.49034 -3.40135 12991 ft 302 kts 329°
2026-04-24 01:29 55.50844 -3.42015 12571 ft 301 kts 329°
2026-04-24 01:30 55.52642 -3.43882 12163 ft 299 kts 329°
2026-04-24 01:30 55.54431 -3.45736 11748 ft 297 kts 328°
2026-04-24 01:30 55.56205 -3.47577 11314 ft 296 kts 329°
2026-04-24 01:30 55.57978 -3.49416 10835 ft 296 kts 329°
2026-04-24 01:31 55.59768 -3.51279 10086 ft 307 kts 329°
2026-04-24 01:31 55.61614 -3.53203 9777 ft 300 kts 329°
2026-04-24 01:31 55.63353 -3.55019 9636 ft 288 kts 329°
2026-04-24 01:31 55.64947 -3.57092 9365 ft 280 kts 313°
2026-04-24 01:32 55.66251 -3.59750 8645 ft 291 kts 313°
2026-04-24 01:32 55.67695 -3.62202 8177 ft 292 kts 317°
2026-04-24 01:32 55.69295 -3.64365 7839 ft 287 kts 334°
2026-04-24 01:32 55.71191 -3.65210 7553 ft 280 kts
2026-04-24 01:33 55.73113 -3.64882 7005 ft 277 kts
2026-04-24 01:33 55.75035 -3.64324 6425 ft 275 kts
2026-04-24 01:33 55.76895 -3.63767 5931 ft 274 kts
2026-04-24 01:33 55.78764 -3.63205 5568 ft 272 kts
2026-04-24 01:34 55.80623 -3.62645 5197 ft 270 kts
2026-04-24 01:34 55.82470 -3.62098 4826 ft 268 kts
2026-04-24 01:34 55.84311 -3.61576 4437 ft 267 kts
2026-04-24 01:34 55.86048 -3.60685 4044 ft 254 kts 24°
2026-04-24 01:35 55.87486 -3.59016 3607 ft 242 kts 44°
2026-04-24 01:35 55.88442 -3.56676 3118 ft 229 kts 62°
2026-04-24 01:35 55.89202 -3.54217 2711 ft 220 kts 59°
2026-04-24 01:35 55.90008 -3.51954 2378 ft 213 kts 58°
2026-04-24 01:36 55.90775 -3.49704 2044 ft 212 kts 60°
2026-04-24 01:36 55.91521 -3.47527 1706 ft 199 kts 59°
2026-04-24 01:36 55.92203 -3.45496 1237 ft 185 kts 61°
2026-04-24 01:36 55.92851 -3.43598 889 ft 172 kts 60°
2026-04-24 01:37 55.93445 -3.41847 590 ft 158 kts 58°
2026-04-24 01:37 55.93990 -3.40230 330 ft 147 kts 59°
2026-04-24 01:37 55.94505 -3.38706 136 ft 142 kts 58°
2026-04-24 01:37 55.94965 -3.37358 112 ft 105 kts 59°
2026-04-24 01:38 55.95243 -3.36532 110 ft 33 kts 59°
2026-04-24 01:38 55.95217 -3.36376 114 ft 13 kts 147°
2026-04-24 01:38 55.95139 -3.36315 116 ft 12 kts 188°
2026-04-24 01:38 55.95082 -3.36434 113 ft 14 kts 239°
2026-04-24 01:39 55.95030 -3.36587 115 ft 15 kts 239°
2026-04-24 01:39 55.94972 -3.36759 116 ft 17 kts 239°
2026-04-24 01:39 55.94883 -3.36791 115 ft 15 kts 152°
2026-04-24 01:39 55.94792 -3.36775 116 ft 9 kts 178°
2026-04-24 01:40 55.94733 -3.36736 116 ft 10 kts 173°
2026-04-24 01:40 55.94675 -3.36730 116 ft 4 kts 177°
2026-04-24 01:40 55.94674 -3.36730 116 ft 0 kts 177°
2026-04-24 01:41 55.94664 -3.36728 114 ft 3 kts 171°
2026-04-24 01:41 55.94655 -3.36695 115 ft 4 kts 97°
2026-04-24 01:41 55.94657 -3.36641 113 ft 4 kts 88°
2026-04-24 01:41 55.94657 -3.36626 116 ft 1 kts 88°
2026-04-24 01:42 55.94657 -3.36616 116 ft 0 kts 88°